User: anonymous   Login
Location: ?ejeti?ky
(50.4060°N, 14.9016°E)
Time: 23:11:58
(UTC+00:00)
Language:

STARLINK-1333 - Orbit

View from above orbital plane
View from above orbital plane
View from above satellite
View from above satellite

Ground track
Ground track

The orbit data is extracted from the following two-line orbital elements,

1 45580C 20025BB  21127.40330758  .00006835  00000-0  45798-3 0  1275
2 45580  53.0559 100.2655 0001160  63.6968  82.8499 15.06390553    14
Epoch (UTC): 07 May 2021 09:40:45
Eccentricity: 0.0001160
inclination: 53.0559°
perigee height: 546 km
apogee height: 548 km
right ascension of ascending node: 100.2655°
argument of perigee: 63.6968°
revolutions per day: 15.06390553
mean anomaly at epoch: 82.8499°
orbit number at epoch: 1

The dashed part of the orbit path shows where the satellite is in the earth's shadow,  

DLR